EST,Max TemperatureF,Mean TemperatureF,Min TemperatureF,Max Dew PointF,MeanDew PointF,Min DewpointF,Max Humidity, Mean Humidity, Min Humidity, Max Sea Level PressureIn, Mean Sea Level PressureIn, Min Sea Level PressureIn, Max VisibilityMiles, Mean VisibilityMiles, Min VisibilityMiles, Max Wind SpeedMPH, Mean Wind SpeedMPH, Max Gust SpeedMPH,PrecipitationIn, CloudCover, Events, WindDirDegrees
2013-1-1,33,22,10,24,7,-3,73,53,39,29.88,29.74,29.60,10,10,10,18,10,32,0.00,3,,268
2013-1-2,21,11,-5,5,-4,-14,70,52,41,30.06,29.93,29.85,10,10,10,22,7,36,0.00,2,,288
2013-1-3,19,3,-13,-2,-8,-18,90,64,38,30.12,30.04,29.94,10,10,10,5,1,,0.00,0,,338
2013-1-4,34,15,-4,24,13,-8,88,71,52,29.91,29.79,29.71,10,10,10,12,3,23,0.00,5,Rain,230
2013-1-5,34,23,10,21,11,5,77,52,37,30.24,30.05,29.72,10,10,10,16,7,26,0.00,3,,272
2013-1-6,34,22,9,24,15,5,100,77,56,30.21,30.02,29.91,10,10,6,5,0,,0.00,4,Snow,10
2013-1-7,32,19,1,22,13,-1,93,75,32,30.38,30.21,29.94,10,10,9,6,2,,0.00,4,,357
2013-1-8,41,21,1,18,10,-3,92,71,40,30.37,30.26,30.19,10,10,10,5,1,,0.00,0,Rain,257
2013-1-9,41,22,5,30,15,1,92,79,53,30.41,30.20,29.92,10,10,10,8,1,,0.00,3,,241
2013-1-10,42,33,21,30,23,18,88,64,43,30.53,30.25,29.94,10,10,10,23,10,38,0.00,4,Rain,294
2013-1-11,37,24,12,31,20,11,96,77,50,30.53,30.39,30.23,10,9,3,7,1,,0.04,4,Rain,156
2013-1-12,37,34,30,36,33,30,100,98,93,30.23,30.15,30.09,10,3,0,4,0,,0.03,8,Fog-Rain,360
2013-1-13,39,36,33,38,36,33,100,99,93,30.14,30.05,29.95,10,1,0,4,0,,0.00,8,Fog,121
2013-1-14,57,44,30,45,34,22,100,87,37,30.22,29.93,29.83,10,4,0,15,2,25,0.00,4,Fog-Rain,277
2013-1-15,39,32,24,25,20,16,88,66,43,30.30,30.26,30.23,10,10,10,6,1,,0.00,1,,253
2013-1-16,28,24,19,27,24,18,100,90,75,30.26,29.96,29.76,10,3,0,5,1,,0.31,7,Fog-Snow,343
2013-1-17,37,24,10,29,10,-10,100,73,27,30.12,29.87,29.74,10,7,0,14,2,24,0.00,4,Fog,307
2013-1-18,17,8,0,-4,-11,-18,72,41,25,30.39,30.28,30.11,10,10,10,17,5,30,0.00,1,,258
2013-1-19,33,20,6,20,12,-2,92,72,50,30.33,30.08,29.85,10,8,1,7,1,,0.01,6,Snow,212
2013-1-20,44,28,12,28,17,10,96,65,35,29.84,29.64,29.45,10,10,10,15,4,31,0.00,4,Rain,265
2013-1-21,25,14,3,11,1,-5,88,54,27,30.04,29.94,29.83,10,10,4,10,4,20,0.00,4,Snow,291
2013-1-22,19,11,1,10,0,-12,87,59,37,30.03,29.87,29.78,10,10,3,13,5,25,0.00,4,Snow,329
2013-1-23,3,0,-4,-15,-20,-23,47,39,32,30.10,30.06,30.02,10,10,10,16,9,30,0.00,0,,283
2013-1-24,10,-4,-17,-11,-16,-22,78,47,26,30.13,30.04,29.96,10,10,10,22,5,33,0.00,2,,267
2013-1-25,19,5,-9,1,-7,-16,78,59,34,30.21,30.14,30.06,10,10,10,4,1,,0.00,2,,2
2013-1-26,19,8,-2,2,-4,-10,87,54,29,30.14,30.06,30.01,10,10,10,12,3,20,0.00,3,,307
2013-1-27,26,12,-2,0,-6,-10,69,46,28,30.42,30.31,30.15,10,10,10,12,4,18,0.00,0,,284
2013-1-28,21,8,-5,16,9,-9,93,81,45,30.42,30.20,30.05,10,5,1,4,0,,0.10,6,Snow,280
2013-1-29,30,16,3,29,20,1,96,87,69,30.20,30.15,30.05,10,8,2,4,0,,0.02,5,Rain-Snow,19
2013-1-30,41,36,30,41,34,28,100,99,93,30.12,29.76,29.41,10,2,0,5,0,,0.18,8,Fog-Rain,125
2013-1-31,57,44,28,55,39,7,100,82,40,29.42,29.15,28.80,10,6,0,20,6,39,0.58,7,Fog-Rain,216